Location: Buckeye Ditch
(40.9104°N, 122.9517°W)
Time: 19:32:06
(UTC+00:00)

Tiros 1 - Pass Details

Date: 27 April 2026
Orbit: 618 x 648 km, 48.4° (Epoch: 9 May)

Event Time Altitude Azimuth Distance (km) Brightness Sun altitude
Rises 12:39:03 0° 184° (S) 2,874 10.2 -7.1°
Reaches altitude 10° 12:42:42 10° 154° (SSE) 1,971 9.7 -6.5°
Maximum altitude 12:44:29 12° 130° (SE) 1,832 9.8 -6.2°
Drops below altitude 10° 12:46:16 10° 107° (ESE) 1,975 10.5 -5.9°
Sets 12:49:55 0° 77° (ENE) 2,887 12.7 -5.3°
